Location: Asar Burnu
(36.5203°N, 30.5523°E)
Time: 10:08:56
(UTC+00:00)

Cosmos 2344 - Pass Details

Date: 04 August 2024
Orbit: 1207 x 3035 km, 63.3° (Epoch: 14 September)

Event Time Altitude Azimuth Distance (km) Brightness Sun altitude
Exits shadow 21:17:19 31° 261° (W) 2,079 4.6 -35.4°
Maximum altitude 21:20:22 44° 309° (NW) 1,644 4.3 -35.6°
Drops below altitude 10° 21:27:15 10° 21° (NNE) 3,181 6.2 -35.9°
Sets 21:30:13 0° 29° (NNE) 4,216 6.9 -36.0°
